Showing default

FLOCK 4BE 25, 60487

Orbit data source: Space-Track

FLOCK 4BE 25, 60487 is a payload satellite owned by Planet (US) in SSO that was launched on Fri, 16 Aug 2024 UTC via an FALCON 9 launch vehicle from the Air Force Western Test Range (AFWTR). Payload-class satellites include a variety of spacecraft equipped with specific instruments for various scientific and technological missions. These include communications satellites like Starlink; space stations such as the ISS; scientific satellites like the Hubble; Earth observation satellites from companies like Planet Labs, Umbra, and HawkEye 360; GPS; miniature CubeSats for education and research; and military/defense satellites.

Loading next visibility...
Identifier
60487, 2024-149V
Orbit
SSO
Country
Flag of USUS
Related business
Manufacturer
Planet
Mission
Operational Commercial Imaging
Bus & Motor
CUBESAT 3U, Unknown motor
Mass
5.7 kg wet, 5.7 kg dry
Launch date (UTC)
2024-08-16 (1 year ago)
Launch vehicle
FALCON 9
Launch site
Air Force Western Test Range (AFWTR)
Object type
Payload
Rocket body
Debris
Shape & HBR
Box + 2 Pan, 1.0 m
Radar Cross Section
0.072 m², Medium (>0.1 m² and < 1m²)

Expand to show TLE details & history
Last TLE update: 7 hours ago

TLE from 7 hours ago
0 FLOCK 4BE 25
1 60487U 24149V   26035.14234649  .00018202  00000-0  54064-3 0  9999
2 60487  97.3899 117.7238 0002642  38.3419 321.8011 15.34830913 81803
Epoch: 2026-02-04T03:24Z
TLE epoch observation values (Epoch: 2026-02-04T03:24:58.736Z)
Latitude
-0.0001°
Longitude
-67.83409°
Altitude
463.113 km
Speed
7.636 km/s
True Right ascension
07h 50m 53s
True Declination
0° 00' 00"
Sunlit
Object was in full shadow at epoch
Visualization orbit readout
Latitude
Unknown
Longitude
Unknown
Altitude
Unknown
Speed
Unknown
Apparent Right ascension
Unknown
Apparent Declination
Unknown
Sunlit
N/A
Visualization observer readout
Local Sidereal Time
12:22:22
Azimuth
Unknown
Elevation
Unknown
Doppler factor
Unknown
Orbital elements
Apogee altitude
460.174 km
Perigee altitude
456.562 km
Semi-major axis
6,836.505 km
Eccentricity
0.00026
Inclination
97.3899°
RAAN
117.7238°
Arg. of periapsis
38.3419°
True anomaly
321.78237°
Mean anomaly
321.8011°
Eccentric anomaly
321.79174°
Mean motion
3.83965 °/min
Orbital period
93.76 mins
BSTAR
0.00054064
Loading maneuver chart data...
Computing Atmospheric mass density...
Loading historical data...
Loading historical data...
Loading historical data...
Loading historical data...
Loading historical data...
Loading historical data...
Loading historical data...

Documentation

Showing up to 5 results
|